Regional Weather Roundup
Issued by NWS

Home | Current Version | Previous Version | Graphics & Text | Print | Product List | Glossary On
Versions: 1 2 3 4 5 6 7 8 9 10 11 12 13 14 15 16 17 18 19 20 21 22 23 24 25 26 27 28 29 30 31 32 33 34 35 36 37 38 39 40 41 42 43 44 45 46 47 48 49 50
000
ASUS43 KBIS 030502
RWRND

NORTH DAKOTA REGIONAL WEATHER ROUNDUP
NATIONAL WEATHER SERVICE BISMARCK ND
1200 AM CDT THU SEP 03 2015

NOTE: "FAIR" INDICATES FEW OR NO CLOUDS BELOW 12,000 FEET WITH NO
SIGNIFICANT WEATHER AND/OR OBSTRUCTIONS TO VISIBILITY.


NDZ001>003-009>011-017-030600-
NORTHWEST NORTH DAKOTA

CITY           SKY/WX    TMP DP  RH WIND       PRES   REMARKS
WILLISTON      PTCLDY    81  52  36 S6        29.64S
MINOT          MOCLDY    69  61  75 SE6       29.70S
MINOT AFB      MOCLDY    70  67  88 SE9       29.69S
$$

NDZ018>021-031>035-040>046-030600-
SOUTHWEST NORTH DAKOTA

CITY           SKY/WX    TMP DP  RH WIND       PRES   REMARKS
BISMARCK       PTCLDY    72  69  90 E7        29.74S
DICKINSON      MOCLDY    73  55  53 SE10      29.71F
GARRISON         N/A     72  63  73 SE7       29.72S
HETTINGER ARPT PTCLDY    72  55  55 E10       29.75F
$$

NDZ004>008-012>016-024-026-027-054-030600-
NORTHEAST NORTH DAKOTA

CITY           SKY/WX    TMP DP  RH WIND       PRES   REMARKS
GRAND FORKS    CLEAR     74  66  76 S15       29.80F
GRND FRKS AFB  CLEAR     73  67  81 S10       29.81S
DEVILS LAKE    CLEAR     73  64  73 SE14      29.77S
$$

NDZ022-023-025-028>030-036>039-047>053-030600-
SOUTHEAST NORTH DAKOTA

CITY           SKY/WX    TMP DP  RH WIND       PRES   REMARKS
FARGO          CLEAR     74  68  81 SE13      29.81F
JAMESTOWN      CLEAR     74  71  91 SE15      29.78S
$$



USA.gov is the U.S. government's official web portal to all federal, state and local government web resources and services.